Weather History for CXNP - November, 2012

Change the Weather History Date:

Wednesday, November 28, 2012

  Actual Average Record
Temperature  
Mean Temperature 24 °F -  
Max Temperature 35 °F - - ()
Min Temperature 12 °F - - ()
Degree Days  
Heating Degree Days 42    
Moisture  
Dew Point 17 °F    
Average Humidity 78    
Maximum Humidity 91    
Minimum Humidity 46    
Precipitation  
Precipitation 0.02 in - - ()
Sea Level Pressure  
Sea Level Pressure 30.18 in    
Wind  
Wind Speed 3 mph ()    
Max Wind Speed 10 mph    
Max Gust Speed 18 mph    
T = Trace of Precipitation, MM = Missing Value Source: Averaged Metar Reports

Daily Weather History Graph

Daily Weather History Graph

Search for Another Location

Airport or City:

Trip Planner

Search our weather history database for the weather conditions in past years. The results will help you decide how hot, cold, wet, or windy it might be!

Date:

Astronomy

Nov. 28, 2012 Rise Set
Actual Time 7:34 AM AST 4:35 PM AST
Civil Twilight 7:00 AM AST 5:08 PM AST
Nautical Twilight 6:23 AM AST 5:45 PM AST
Astronomical Twilight 5:48 AM AST 6:21 PM AST
Moon 4:47 PM AST (11/28) 7:28 AM AST (11/28)
Length of Visible Light 10h 07m
Length of Day
9h 01m
Full, 100% of the Moon is Illuminated
Nov 28
Full
Dec 6
Last Quarter
Dec 13
New
Dec 20
First Quarter
Dec 28
Full

Hourly Weather History & Observations

Time (AST) Temp. Windchill Dew Point Humidity Pressure Visibility Wind Dir Wind Speed Gust Speed Precip Events Conditions
12:00 AM 15.6 °F - 11.8 °F 85% 30.33 in - Calm Calm - N/A   Unknown
1:00 AM 14.9 °F - 11.5 °F 86% 30.32 in - South 2.3 mph - N/A   Unknown
2:00 AM 15 °F - 12 °F 80% 30.30 in - South 1.2 mph - -  
2:00 AM 14.5 °F - 11.7 °F 88% 30.30 in - South 1.2 mph - N/A   Unknown
3:00 AM 14.2 °F 8.4 °F 11.3 °F 88% 30.31 in - South 3.5 mph - N/A   Unknown
4:00 AM 14.2 °F - 11.8 °F 90% 30.30 in - ENE 1.2 mph - N/A   Unknown
5:00 AM 14.5 °F - 12.2 °F 90% 30.29 in - North 1.2 mph - N/A   Unknown
6:00 AM 15.1 °F - 12.7 °F 90% 30.27 in - Calm Calm - N/A   Unknown
7:00 AM 15.6 °F - 13.3 °F 90% 30.26 in - Calm Calm - N/A   Unknown
8:00 AM 17 °F - 15 °F 85% 30.25 in - North 2.3 mph - -  
8:00 AM 16.7 °F - 14.5 °F 91% 30.25 in - North 2.3 mph - N/A   Unknown
9:00 AM 17.6 °F 12.3 °F 15.3 °F 91% 30.26 in - North 3.5 mph - N/A   Unknown
10:00 AM 23.9 °F 19.5 °F 18.9 °F 81% 30.24 in - NNE 3.5 mph - 0.01 in   Unknown
12:00 PM 32.9 °F 25.9 °F 20.3 °F 60% 30.17 in - NE 8.1 mph - N/A   Unknown
1:00 PM 33.4 °F 25.4 °F 18.9 °F 55% 30.14 in - NE 10.4 mph 18.4 mph N/A   Unknown
2:00 PM 33 °F - 20 °F 46% 30.12 in - NNE 10.4 mph - -  
2:00 PM 31.3 °F 22.7 °F 19.9 °F 63% 30.12 in - NNE 10.4 mph - N/A   Unknown
3:00 PM 32.0 °F 23.6 °F 21.0 °F 64% 30.09 in - NNE 10.4 mph 17.3 mph N/A   Unknown
4:00 PM 31.1 °F 23.7 °F 21.7 °F 68% 30.09 in - NNE 8.1 mph - N/A   Unknown
5:00 PM 30.4 °F 21.5 °F 23.7 °F 76% 30.09 in - North 10.4 mph - N/A   Unknown
6:00 PM 29.5 °F 21.8 °F 22.6 °F 76% 30.09 in - NNE 8.1 mph - N/A   Unknown
7:00 PM 29.3 °F 22.3 °F 22.3 °F 75% 30.09 in - North 6.9 mph - N/A   Unknown
8:00 PM 28 °F - 21 °F 67% 30.07 in - North 6.9 mph - -  
8:00 PM 28.4 °F 21.2 °F 21.4 °F 75% 30.07 in - North 6.9 mph - N/A   Unknown
9:00 PM 27.9 °F 21.5 °F 21.2 °F 76% 30.06 in - NNW 5.8 mph - N/A   Unknown
10:00 PM 27.1 °F 21.8 °F 21.0 °F 78% 30.04 in - North 4.6 mph - N/A   Unknown
11:00 PM 26.4 °F 19.8 °F 21.2 °F 81% 30.02 in - North 5.8 mph - N/A   Unknown